Time,TemperatureF,DewpointF,PressureIn,WindDirection,WindDirectionDegrees,WindSpeedMPH,WindSpeedGustMPH,Humidity,HourlyPrecipIn,Conditions,Clouds,dailyrainin,SoftwareType,DateUTC
2013-05-12 00:09:00,62.1,61.5,29.42,West,270,1.7,-999.0,98,-99.99,,,0.00,Acu-Link.com,2013-05-12 04:09:00,
2013-05-12 00:24:00,61.5,60.9,29.41,SW,225,0.0,-999.0,98,-99.99,,,0.00,Acu-Link.com,2013-05-12 04:24:00,
2013-05-12 00:39:00,61.3,60.7,29.40,South,180,0.0,-999.0,98,-99.99,,,0.00,Acu-Link.com,2013-05-12 04:39:00,
2013-05-12 00:54:00,61.3,60.7,29.42,West,270,0.0,-999.0,98,-99.99,,,0.00,Acu-Link.com,2013-05-12 04:54:00,
2013-05-12 01:09:00,60.8,60.2,29.40,NE,45,0.0,-999.0,98,-99.99,,,0.00,Acu-Link.com,2013-05-12 05:09:00,
2013-05-12 01:25:00,60.4,59.8,29.39,ESE,112,0.0,-999.0,98,-99.99,,,0.00,Acu-Link.com,2013-05-12 05:25:00,
2013-05-12 01:40:00,60.3,59.7,29.40,West,270,0.0,-999.0,98,-99.99,,,0.00,Acu-Link.com,2013-05-12 05:40:00,
2013-05-12 01:55:00,60.1,59.5,29.39,West,270,0.0,-999.0,98,-99.99,,,0.00,Acu-Link.com,2013-05-12 05:55:00,
2013-05-12 02:10:00,59.7,59.1,29.39,West,270,0.0,-999.0,98,-99.99,,,0.00,Acu-Link.com,2013-05-12 06:10:00,
2013-05-12 02:25:00,59.2,58.6,29.37,ENE,67,0.0,-999.0,98,-99.99,,,0.00,Acu-Link.com,2013-05-12 06:25:00,
2013-05-12 02:40:00,58.8,58.2,29.38,East,90,0.0,-999.0,98,-99.99,,,0.00,Acu-Link.com,2013-05-12 06:40:00,
2013-05-12 02:55:00,58.6,58.0,29.38,NW,315,0.0,-999.0,98,-99.99,,,0.00,Acu-Link.com,2013-05-12 06:55:00,
2013-05-12 03:10:00,58.6,58.0,29.39,SW,225,1.7,-999.0,98,-99.99,,,0.00,Acu-Link.com,2013-05-12 07:10:00,
2013-05-12 03:25:00,58.6,58.0,29.39,SW,225,0.0,-999.0,98,-99.99,,,0.00,Acu-Link.com,2013-05-12 07:25:00,
2013-05-12 03:41:00,58.6,58.0,29.40,ENE,67,0.0,-999.0,98,-99.99,,,0.00,Acu-Link.com,2013-05-12 07:41:00,
2013-05-12 03:56:00,58.3,57.7,29.39,NE,45,0.0,-999.0,98,-99.99,,,0.00,Acu-Link.com,2013-05-12 07:56:00,
2013-05-12 04:12:00,58.1,57.5,29.39,SW,225,0.0,-999.0,98,-99.99,,,0.00,Acu-Link.com,2013-05-12 08:12:00,
2013-05-12 04:27:00,58.1,57.5,29.40,SW,225,0.0,-999.0,98,-99.99,,,0.00,Acu-Link.com,2013-05-12 08:27:00,
2013-05-12 04:42:00,57.9,57.3,29.40,SW,225,0.0,-999.0,98,-99.99,,,0.00,Acu-Link.com,2013-05-12 08:42:00,
2013-05-12 04:57:00,57.7,57.1,29.39,North,0,0.0,-999.0,98,-99.99,,,0.00,Acu-Link.com,2013-05-12 08:57:00,
2013-05-12 05:12:00,57.6,57.0,29.41,South,180,0.0,-999.0,98,-99.99,,,0.00,Acu-Link.com,2013-05-12 09:12:00,
2013-05-12 05:27:00,57.4,56.8,29.41,WSW,247,0.0,-999.0,98,-99.99,,,0.00,Acu-Link.com,2013-05-12 09:27:00,
2013-05-12 05:42:00,57.4,56.8,29.43,West,270,0.0,-999.0,98,-99.99,,,0.00,Acu-Link.com,2013-05-12 09:42:00,
2013-05-12 05:57:00,56.8,56.2,29.42,WNW,292,1.1,-999.0,98,-99.99,,,0.00,Acu-Link.com,2013-05-12 09:57:00,
2013-05-12 06:13:00,56.7,56.1,29.43,SW,225,0.0,-999.0,98,-99.99,,,0.00,Acu-Link.com,2013-05-12 10:13:00,
2013-05-12 06:28:00,56.7,56.1,29.43,West,270,0.0,-999.0,98,-99.99,,,0.00,Acu-Link.com,2013-05-12 10:28:00,
2013-05-12 06:43:00,56.1,55.5,29.43,ESE,112,2.2,-999.0,98,-99.99,,,0.01,Acu-Link.com,2013-05-12 10:43:00,
2013-05-12 06:58:00,55.9,55.3,29.44,East,90,0.0,-999.0,98,-99.99,,,0.01,Acu-Link.com,2013-05-12 10:58:00,
2013-05-12 07:13:00,55.8,55.2,29.43,SE,135,0.0,-999.0,98,-99.99,,,0.01,Acu-Link.com,2013-05-12 11:13:00,
2013-05-12 07:28:00,55.4,54.8,29.44,SSW,202,1.7,-999.0,98,-99.99,,,0.01,Acu-Link.com,2013-05-12 11:28:00,
2013-05-12 07:43:00,56.3,55.7,29.44,ENE,67,2.2,-999.0,98,-99.99,,,0.01,Acu-Link.com,2013-05-12 11:43:00,
2013-05-12 07:58:00,56.8,56.2,29.44,SSE,157,1.1,-999.0,98,-99.99,,,0.01,Acu-Link.com,2013-05-12 11:58:00,
2013-05-12 08:13:00,57.9,57.3,29.43,WSW,247,1.1,-999.0,98,-99.99,,,0.01,Acu-Link.com,2013-05-12 12:13:00,
2013-05-12 08:29:00,59.7,59.1,29.43,NE,45,3.7,-999.0,98,-99.99,,,0.01,Acu-Link.com,2013-05-12 12:29:00,
2013-05-12 08:44:00,60.6,60.0,29.42,ENE,67,1.1,-999.0,98,-99.99,,,0.01,Acu-Link.com,2013-05-12 12:44:00,
2013-05-12 08:59:00,62.1,61.5,29.43,ESE,112,1.7,-999.0,98,-99.99,,,0.01,Acu-Link.com,2013-05-12 12:59:00,
2013-05-12 09:14:00,62.8,62.2,29.43,SSW,202,4.7,-999.0,98,-99.99,,,0.01,Acu-Link.com,2013-05-12 13:14:00,
2013-05-12 09:29:00,63.1,62.5,29.42,ENE,67,3.7,-999.0,98,-99.99,,,0.01,Acu-Link.com,2013-05-12 13:29:00,
2013-05-12 09:44:00,64.6,64.0,29.43,SSW,202,3.7,-999.0,98,-99.99,,,0.01,Acu-Link.com,2013-05-12 13:44:00,
2013-05-12 09:59:00,65.1,64.5,29.42,ESE,112,1.7,-999.0,98,-99.99,,,0.01,Acu-Link.com,2013-05-12 13:59:00,
2013-05-12 10:14:00,66.2,65.6,29.42,SW,225,4.7,-999.0,98,-99.99,,,0.01,Acu-Link.com,2013-05-12 14:14:00,
2013-05-12 10:29:00,66.7,66.1,29.42,South,180,1.7,-999.0,98,-99.99,,,0.01,Acu-Link.com,2013-05-12 14:29:00,
2013-05-12 10:45:00,67.1,66.5,29.42,ESE,112,0.0,-999.0,98,-99.99,,,0.01,Acu-Link.com,2013-05-12 14:45:00,
2013-05-12 11:00:00,67.5,66.9,29.41,West,270,4.2,-999.0,98,-99.99,,,0.01,Acu-Link.com,2013-05-12 15:00:00,
2013-05-12 11:15:00,68.5,67.9,29.42,ESE,112,5.3,-999.0,98,-99.99,,,0.01,Acu-Link.com,2013-05-12 15:15:00,
2013-05-12 11:30:00,67.6,67.0,29.41,ESE,112,4.7,-999.0,98,-99.99,,,0.01,Acu-Link.com,2013-05-12 15:30:00,
2013-05-12 11:45:00,66.9,66.3,29.42,SW,225,2.2,-999.0,98,-99.99,,,0.01,Acu-Link.com,2013-05-12 15:45:00,
2013-05-12 12:00:00,68.4,67.8,29.42,WNW,292,4.2,-999.0,98,-99.99,,,0.01,Acu-Link.com,2013-05-12 16:00:00,
2013-05-12 12:15:00,65.5,64.9,29.41,SW,225,1.7,-999.0,98,-99.99,,,0.01,Acu-Link.com,2013-05-12 16:15:00,
2013-05-12 12:30:00,68.4,67.8,29.41,West,270,2.2,-999.0,98,-99.99,,,0.01,Acu-Link.com,2013-05-12 16:30:00,
2013-05-12 12:45:00,65.7,65.1,29.41,South,180,5.8,-999.0,98,-99.99,,,0.01,Acu-Link.com,2013-05-12 16:45:00,
2013-05-12 13:01:00,66.4,65.5,29.42,North,0,2.7,-999.0,97,-99.99,,,0.01,Acu-Link.com,2013-05-12 17:01:00,
2013-05-12 13:16:00,68.9,63.5,29.42,South,180,5.8,-999.0,83,-99.99,,,0.01,Acu-Link.com,2013-05-12 17:16:00,
2013-05-12 13:31:00,67.1,60.4,29.42,SSE,157,2.7,-999.0,79,-99.99,,,0.01,Acu-Link.com,2013-05-12 17:31:00,
2013-05-12 13:46:00,69.1,62.3,29.42,ESE,112,6.8,-999.0,79,-99.99,,,0.01,Acu-Link.com,2013-05-12 17:46:00,
2013-05-12 14:01:00,67.5,57.8,29.43,South,180,4.7,-999.0,71,-99.99,,,0.01,Acu-Link.com,2013-05-12 18:01:00,
2013-05-12 14:16:00,67.1,54.1,29.43,SE,135,4.2,-999.0,63,-99.99,,,0.01,Acu-Link.com,2013-05-12 18:16:00,
2013-05-12 14:46:00,67.3,52.0,29.43,WNW,292,3.2,-999.0,58,-99.99,,,0.01,Acu-Link.com,2013-05-12 18:46:00,
2013-05-12 15:01:00,68.5,51.7,29.43,ENE,67,4.2,-999.0,55,-99.99,,,0.01,Acu-Link.com,2013-05-12 19:01:00,
2013-05-12 15:17:00,67.3,49.1,29.43,NE,45,4.7,-999.0,52,-99.99,,,0.01,Acu-Link.com,2013-05-12 19:17:00,
2013-05-12 15:32:00,67.3,48.0,29.44,SW,225,2.7,-999.0,50,-99.99,,,0.02,Acu-Link.com,2013-05-12 19:32:00,
2013-05-12 15:47:00,67.3,49.1,29.43,ESE,112,3.2,-999.0,52,-99.99,,,0.02,Acu-Link.com,2013-05-12 19:47:00,
2013-05-12 16:02:00,66.2,47.0,29.45,West,270,3.2,-999.0,50,-99.99,,,0.02,Acu-Link.com,2013-05-12 20:02:00,
2013-05-12 16:17:00,65.5,46.4,29.45,SE,135,4.2,-999.0,50,-99.99,,,0.02,Acu-Link.com,2013-05-12 20:17:00,
2013-05-12 16:32:00,64.8,45.2,29.45,South,180,3.2,-999.0,49,-99.99,,,0.02,Acu-Link.com,2013-05-12 20:32:00,
2013-05-12 16:47:00,64.2,44.1,29.46,SW,225,7.8,-999.0,48,-99.99,,,0.02,Acu-Link.com,2013-05-12 20:47:00,
2013-05-12 17:03:00,64.9,45.8,29.47,SSW,202,2.2,-999.0,50,-99.99,,,0.02,Acu-Link.com,2013-05-12 21:03:00,
2013-05-12 17:18:00,64.4,45.9,29.47,ESE,112,3.7,-999.0,51,-99.99,,,0.02,Acu-Link.com,2013-05-12 21:18:00,
2013-05-12 17:33:00,63.7,45.7,29.48,SW,225,3.2,-999.0,52,-99.99,,,0.02,Acu-Link.com,2013-05-12 21:33:00,
2013-05-12 17:48:00,61.7,42.9,29.49,SW,225,4.7,-999.0,50,-99.99,,,0.02,Acu-Link.com,2013-05-12 21:48:00,
2013-05-12 18:03:00,60.6,42.4,29.50,ESE,112,4.7,-999.0,51,-99.99,,,0.02,Acu-Link.com,2013-05-12 22:03:00,
2013-05-12 18:18:00,60.3,43.1,29.50,NE,45,2.2,-999.0,53,-99.99,,,0.02,Acu-Link.com,2013-05-12 22:18:00,
2013-05-12 18:33:00,59.7,42.0,29.51,WSW,247,2.7,-999.0,52,-99.99,,,0.02,Acu-Link.com,2013-05-12 22:33:00,
2013-05-12 18:48:00,59.0,41.9,29.51,SW,225,2.2,-999.0,53,-99.99,,,0.02,Acu-Link.com,2013-05-12 22:48:00,
2013-05-12 19:03:00,58.3,42.7,29.53,SW,225,0.0,-999.0,56,-99.99,,,0.02,Acu-Link.com,2013-05-12 23:03:00,
2013-05-12 19:19:00,57.7,40.7,29.53,South,180,3.7,-999.0,53,-99.99,,,0.02,Acu-Link.com,2013-05-12 23:19:00,
2013-05-12 19:34:00,56.8,40.8,29.54,West,270,2.2,-999.0,55,-99.99,,,0.02,Acu-Link.com,2013-05-12 23:34:00,
2013-05-12 19:49:00,56.3,40.3,29.55,WSW,247,1.1,-999.0,55,-99.99,,,0.02,Acu-Link.com,2013-05-12 23:49:00,
2013-05-12 20:04:00,55.2,40.7,29.56,NW,315,0.0,-999.0,58,-99.99,,,0.02,Acu-Link.com,2013-05-13 00:04:00,
2013-05-12 20:19:00,54.9,40.4,29.56,NNW,337,2.2,-999.0,58,-99.99,,,0.02,Acu-Link.com,2013-05-13 00:19:00,
2013-05-12 20:34:00,54.0,40.4,29.56,WNW,292,0.0,-999.0,60,-99.99,,,0.02,Acu-Link.com,2013-05-13 00:34:00,
2013-05-12 20:49:00,52.5,41.1,29.58,WNW,292,0.0,-999.0,65,-99.99,,,0.02,Acu-Link.com,2013-05-13 00:49:00,
2013-05-12 21:04:00,53.1,42.4,29.59,East,90,1.7,-999.0,67,-99.99,,,0.02,Acu-Link.com,2013-05-13 01:04:00,
2013-05-12 21:19:00,53.6,43.7,29.60,ESE,112,2.7,-999.0,69,-99.99,,,0.02,Acu-Link.com,2013-05-13 01:19:00,
2013-05-12 21:35:00,53.4,43.5,29.61,East,90,4.2,-999.0,69,-99.99,,,0.02,Acu-Link.com,2013-05-13 01:35:00,
2013-05-12 21:50:00,52.3,44.3,29.62,South,180,1.1,-999.0,74,-99.99,,,0.02,Acu-Link.com,2013-05-13 01:50:00,
2013-05-12 22:05:00,52.9,43.8,29.63,East,90,4.2,-999.0,71,-99.99,,,0.02,Acu-Link.com,2013-05-13 02:05:00,
2013-05-12 22:20:00,52.3,42.8,29.64,NNE,22,2.2,-999.0,70,-99.99,,,0.02,Acu-Link.com,2013-05-13 02:20:00,
2013-05-12 22:35:00,51.8,42.3,29.64,SW,225,2.2,-999.0,70,-99.99,,,0.02,Acu-Link.com,2013-05-13 02:35:00,
2013-05-12 22:50:00,51.3,41.9,29.65,NNW,337,1.7,-999.0,70,-99.99,,,0.02,Acu-Link.com,2013-05-13 02:50:00,
2013-05-12 23:05:00,50.7,42.0,29.65,ESE,112,3.2,-999.0,72,-99.99,,,0.02,Acu-Link.com,2013-05-13 03:05:00,
2013-05-12 23:20:00,50.2,41.9,29.65,ESE,112,1.7,-999.0,73,-99.99,,,0.02,Acu-Link.com,2013-05-13 03:20:00,
2013-05-12 23:35:00,49.6,41.7,29.65,SE,135,2.2,-999.0,74,-99.99,,,0.02,Acu-Link.com,2013-05-13 03:35:00,
2013-05-12 23:51:00,49.1,41.9,29.66,SSW,202,1.1,-999.0,76,-99.99,,,0.02,Acu-Link.com,2013-05-13 03:51:00,